Canberra, Australia

3:43 PM AEDT on January 18, 2017 (GMT +1100)
Canberra

Weather History for YSCB - September, 2013

Change the Weather History Date:

Friday, September 13, 2013

  Actual Average Record
Temperature  
Mean Temperature 42 °F -  
Max Temperature 57 °F 64 °F - ()
Min Temperature 26 °F 40 °F - ()
Degree Days  
Heating Degree Days 24    
Moisture  
Dew Point 36 °F    
Average Humidity 74    
Maximum Humidity 93    
Minimum Humidity 34    
Precipitation  
Precipitation 0.47 in 0.08 in - ()
Sea Level Pressure  
Sea Level Pressure 30.07 in    
Wind  
Wind Speed 7 mph ()    
Max Wind Speed 17 mph    
Max Gust Speed -    
Visibility 6.1 miles    
Events Rain    
T = Trace of Precipitation, MM = Missing Value Source: Averaged Metar Reports

Daily Weather History Graph

Daily Weather History Graph

Search for Another Location

Airport or City:

Trip Planner

Search our weather history database for the weather conditions in past years. The results will help you decide how hot, cold, wet, or windy it might be!

Date:

Astronomy

Sep. 13, 2013 Rise Set
Actual Time 6:06 AM AEST 5:52 PM AEST
Civil Twilight 5:40 AM AEST 6:18 PM AEST
Nautical Twilight 5:11 AM AEST 6:47 PM AEST
Astronomical Twilight 4:42 AM AEST 7:17 PM AEST
Moon 11:15 AM AEST (9/13) 12:46 AM AEST (9/13)
Length of Visible Light 12h 37m
Length of Day
11h 46m
First Quarter, 54% of the Moon is Illuminated
Sep 13
First Quarter
Sep 19
Full
Sep 27
Last Quarter
Oct 5
New
Oct 12
First Quarter

Hourly Weather History & Observations

Time (AEST) Temp. Windchill Dew Point Humidity Pressure Visibility Wind Dir Wind Speed Gust Speed Precip Events Conditions
12:00 AM 29 °F - 25 °F 77% 30.15 in - SE 4.6 mph - -  
12:00 AM 28.4 °F 23.3 °F 24.8 °F 86% 30.12 in 6.2 mi SE 4.6 mph - N/A   Unknown
12:30 AM 32.0 °F 27.5 °F 30.2 °F 93% 30.12 in 6.2 mi NE 4.6 mph - N/A   Unknown
1:00 AM 30 °F - 27 °F 82% 30.15 in - North 1.2 mph - -  
1:00 AM 30.2 °F - 26.6 °F 86% 30.12 in 6.2 mi North 1.2 mph - N/A   Unknown
1:30 AM 30.2 °F 25.4 °F 28.4 °F 93% 30.12 in 6.2 mi SE 4.6 mph - N/A   Unknown
2:00 AM 30.2 °F - 28.4 °F 93% 30.12 in 6.2 mi Calm Calm - N/A   Unknown
2:30 AM 30.2 °F 26.7 °F 28.4 °F 93% 30.12 in 6.2 mi East 3.5 mph - N/A   Unknown
3:00 AM 28 °F - 26 °F 86% 30.14 in - SE 6.9 mph - -  
3:00 AM 28.4 °F 21.2 °F 24.8 °F 86% 30.12 in 6.2 mi SE 6.9 mph - N/A   Unknown
3:30 AM 30.2 °F 24.3 °F 28.4 °F 93% 30.12 in 6.2 mi SE 5.8 mph - N/A   Unknown
4:00 AM 30 °F - 27 °F 84% 30.15 in - ESE 6.9 mph - -  
4:00 AM 30.2 °F 23.4 °F 26.6 °F 86% 30.12 in 6.2 mi ESE 6.9 mph - N/A   Unknown
4:30 AM 28.4 °F 22.2 °F 24.8 °F 86% 30.12 in 6.2 mi ESE 5.8 mph - N/A   Partly Cloudy
5:00 AM 30.2 °F 24.3 °F 28.4 °F 93% 30.12 in 6.2 mi ESE 5.8 mph - N/A   Partly Cloudy
5:30 AM 28.4 °F - 26.6 °F 93% 30.12 in 6.2 mi Calm Calm - N/A   Partly Cloudy
6:00 AM 29 °F - 27 °F 88% 30.16 in - Calm Calm - -  
6:00 AM 28.4 °F - 26.6 °F 93% 30.12 in 6.2 mi Calm Calm - N/A   Scattered Clouds
6:30 AM 30.2 °F - 26.6 °F 86% 30.12 in 6.2 mi SSE 2.3 mph - N/A   Scattered Clouds
7:00 AM 32.0 °F 28.7 °F 30.2 °F 93% 30.12 in 6.2 mi East 3.5 mph - N/A   Scattered Clouds
7:30 AM 37.4 °F 32.8 °F 33.8 °F 87% 30.12 in 6.2 mi SE 5.8 mph - N/A   Mostly Cloudy
8:00 AM 41.0 °F 38.0 °F 33.8 °F 76% 30.12 in 6.2 mi South 4.6 mph - N/A   Scattered Clouds
8:30 AM 42.8 °F 40.1 °F 33.8 °F 70% 30.15 in 6.2 mi West 4.6 mph - N/A   Scattered Clouds
9:00 AM 46.4 °F 41.1 °F 33.8 °F 62% 30.15 in 6.2 mi ESE 11.5 mph - N/A   Scattered Clouds
9:30 AM 48.2 °F - 35.6 °F 62% 30.15 in 6.2 mi ENE 11.5 mph - N/A   Scattered Clouds
10:00 AM 49 °F - 35 °F 46% 30.17 in - ENE 13.8 mph - -  
10:00 AM 50.0 °F - 33.8 °F 54% 30.15 in 6.2 mi ENE 13.8 mph - N/A   Mostly Cloudy
10:30 AM 50.0 °F - 35.6 °F 58% 30.12 in 6.2 mi East 17.3 mph - N/A   Mostly Cloudy
11:00 AM 50.0 °F - 35.6 °F 58% 30.12 in 6.2 mi East 16.1 mph - N/A   Mostly Cloudy
11:30 AM 51.8 °F - 35.6 °F 54% 30.09 in 6.2 mi East 16.1 mph - N/A   Mostly Cloudy
12:00 PM 54 °F - 36 °F 38% 30.10 in - ENE 16.1 mph - -  
12:00 PM 53.6 °F - 35.6 °F 51% 30.09 in 6.2 mi ENE 16.1 mph - N/A   Mostly Cloudy
12:30 PM 53.6 °F - 35.6 °F 51% 30.06 in 6.2 mi ENE 13.8 mph - N/A   Mostly Cloudy
1:00 PM 57.2 °F - 37.4 °F 48% 30.04 in 6.2 mi ENE 15.0 mph - N/A   Scattered Clouds
1:30 PM 55.4 °F - 35.6 °F 47% 30.04 in 6.2 mi NE 11.5 mph - N/A   Mostly Cloudy
2:00 PM 57.2 °F - 37.4 °F 48% 30.04 in 6.2 mi East 15.0 mph - N/A   Scattered Clouds
2:30 PM 55.4 °F - 33.8 °F 44% 30.04 in 6.2 mi NE 12.7 mph - N/A   Mostly Cloudy
3:00 PM 56 °F - 35 °F 34% 30.02 in - ENE 9.2 mph - -  
3:00 PM 55.4 °F - 35.6 °F 47% 30.01 in 6.2 mi ENE 9.2 mph - N/A   Mostly Cloudy
3:30 PM 55.4 °F - 35.6 °F 47% 30.01 in 6.2 mi East 12.7 mph - N/A   Mostly Cloudy
4:00 PM 55 °F - 36 °F 38% 30.02 in - East 9.2 mph - -  
4:00 PM 55.4 °F - 37.4 °F 51% 30.01 in 6.2 mi East 9.2 mph - N/A   Mostly Cloudy
4:30 PM 55.4 °F - 37.4 °F 51% 30.01 in 6.2 mi ENE 11.5 mph - N/A   Mostly Cloudy
5:00 PM 53.6 °F - 37.4 °F 54% 29.98 in 6.2 mi East 11.5 mph - N/A   Mostly Cloudy
5:30 PM 53.6 °F - 37.4 °F 54% 29.98 in 6.2 mi East 10.4 mph - N/A   Mostly Cloudy
6:00 PM 53 °F - 38 °F 45% 30.02 in - East 8.1 mph - -   Overcast
6:00 PM 51.8 °F - 37.4 °F 58% 30.01 in 6.2 mi East 8.1 mph - N/A Rain Light Rain
6:30 PM 51.8 °F - 39.2 °F 62% 30.04 in 6.2 mi ESE 9.2 mph - N/A Rain Light Rain
7:00 PM 49 °F - 43 °F 71% 30.05 in - East 10.4 mph - -  
7:00 PM 50.0 °F - 42.8 °F 76% 30.04 in 6.2 mi East 10.4 mph - N/A Rain Light Rain
7:13 PM 48.2 °F - 42.8 °F 82% 30.01 in 3.7 mi East 10.4 mph - N/A Rain Heavy Rain
7:30 PM 48.2 °F - 44.6 °F 87% 30.04 in 6.2 mi SE 9.2 mph - N/A Rain Light Rain
8:00 PM 46.4 °F 42.4 °F 44.6 °F 93% 30.04 in 6.2 mi SE 8.1 mph - N/A Rain Rain
8:30 PM 46.4 °F 42.9 °F 44.6 °F 93% 30.04 in 6.2 mi SE 6.9 mph - N/A Rain Light Rain
9:00 PM 47 °F - 45 °F 88% 30.10 in - West 4.6 mph - -   Overcast
9:00 PM 46.4 °F 44.3 °F 44.6 °F 93% 30.09 in 6.2 mi West 4.6 mph - N/A Rain Light Rain Showers
9:16 PM 46.4 °F 40.7 °F 44.6 °F 93% 30.01 in 6.2 mi ESE 12.7 mph - N/A Rain Rain Showers
9:30 PM 46.4 °F 42.4 °F 44.6 °F 93% 30.04 in 6.2 mi SE 8.1 mph - N/A Rain Rain Showers
10:00 PM 46 °F - 44 °F 91% 30.02 in - ESE 15.0 mph - -  
10:00 PM 46.4 °F 40.1 °F 44.6 °F 93% 30.01 in 6.2 mi ESE 15.0 mph - N/A Rain Light Rain Showers
10:30 PM 46.4 °F 42.9 °F 44.6 °F 93% 30.04 in 6.2 mi SSE 6.9 mph - N/A Rain Rain Showers
10:52 PM 46.4 °F 42.4 °F 44.6 °F 93% 30.01 in 6.2 mi SE 8.1 mph - N/A Rain Heavy Rain
11:00 PM 46.4 °F 42.4 °F 44.6 °F 93% 30.01 in 6.2 mi SE 8.1 mph - N/A Rain Heavy Rain
11:08 PM 46.4 °F 44.3 °F 44.6 °F 93% 30.01 in 6.2 mi SSE 4.6 mph - N/A Rain Rain
11:18 PM 46.4 °F 40.7 °F 44.6 °F 93% 29.98 in 3.7 mi ESE 12.7 mph - N/A Rain Heavy Rain
11:30 PM 46.4 °F 41.5 °F 44.6 °F 93% 29.98 in 6.2 mi East 10.4 mph - N/A Rain Heavy Rain
11:33 PM 46.4 °F 41.9 °F 44.6 °F 93% 30.01 in 6.2 mi ESE 9.2 mph - N/A Rain Rain
11:59 PM 46.4 °F 41.5 °F 44.6 °F 93% 29.98 in 6.2 mi South 10.4 mph - N/A Rain Rain